Location: B?jaj?g
(11.7167°N, 92.6667°E)
Time: 14:43:21
(UTC+00:00)

Cosmos 1943 - Pass Details

Date: 18 September 2020
Orbit: 833 x 850 km, 71.0° (Epoch: 27 October)

Event Time Altitude Azimuth Distance (km) Brightness Sun altitude
Rises 13:06:51 0° 0° (N) 3,389 6.4 -20.1°
Reaches altitude 10° 13:09:33 10° 10° (N) 2,457 5.6 -20.7°
Enters shadow 13:13:02 27° 44° (NE) 1,552 4.2 -21.6°
